星链-30971 (STARLINK-30971 )

导读

STARLINK-30971是美国SpaceX公司星链星座的卫星,于北京时间2023年11月28日发射入轨,属于星链大规模星座组网的组成部分。星链计划旨在构建全球近地轨道卫星互联网,可为偏远地区提供高速宽带接入,覆盖个人、商业、海事航空多场景。该卫星的发射,延续了SpaceX快速推进星链组网的节奏,助力星链全球覆盖与服务能力的提升,推动低轨卫星互联网落地。

基本信息
目录编号:
58443
目录名称:
STARLINK-30971
国际标识:
2023-183G
轨道中心:
EARTH
卫星名称:
星链-30971
卫星全名:
星链-30971 (STARLINK-30971 )
卫星状态:
在轨 (已飞行1011 天)
发射日期:
2023-11-28 UTC
国别 :
美国 (US)
星等 :
--
轨道信息
数据来源 国际轨道数据 AOE轨道数据
星历时间 2026-09-04T00:41:18+0800
13小时前
查看轨道信息
2026-08-29T23:00:00+0800
5天前
查看轨道信息
半长轴 6861.254km 6861.156km
偏心率 0.0000901 0.0001707
轨道倾角 43.002° 43.004°
近地点辐角 251.358° 252.153°
升交点赤经 116.703° 145.342°
平近点角 108.717° 272.067°
近地点 482.498km 481.847km
远地点 483.736km 484.191km
周期 94.268分钟 94.266分钟
每日圈数 15.275576 15.275902
详细信息
固有亮度:
5
最大亮度:
0.3
卫星平台:
Starlink v2.0 mini
覆盖范围:
全球
运营商:
太空探索技术公司
运营商所在国:
美国
制造商(研发单位):
太空探索技术公司
制造商所在国:
美国
使用方式:
暂无
卫星简介
星链(Starlink)计划是由太空探索技术公司(SpaceX)提出的一个巨型低轨卫星互联网星座项目,计划在2019年至2024年间在太空搭建由约1.2万颗卫星组成的“星链”网络,其中1584颗将部署在地球上空550千米处的近地轨道,并从2020年开始工作。该卫星仍在工作。
2D轨道图
3D轨道图
轨道高度分析图
轨道倾角分析图
轨道综合分析图
查看轨道综合分析图